TimeEDT,TemperatureF,Dew PointF,Humidity,Sea Level PressureIn,VisibilityMPH,Wind Direction,Wind SpeedMPH,Gust SpeedMPH,PrecipitationIn,Events,Conditions,WindDirDegrees,DateUTC
12:53 AM,64.0,59.0,84,30.10,10.0,South,5.8,-,N/A,,Clear,180,2013-08-19 04:53:00
1:53 AM,63.0,57.9,84,30.09,10.0,South,5.8,-,N/A,,Clear,180,2013-08-19 05:53:00
2:53 AM,62.1,59.0,90,30.09,10.0,South,4.6,-,N/A,,Clear,170,2013-08-19 06:53:00
3:53 AM,62.1,59.0,90,30.08,10.0,Calm,Calm,-,N/A,,Clear,0,2013-08-19 07:53:00
4:53 AM,62.1,59.0,90,30.08,10.0,South,3.5,-,N/A,,Clear,180,2013-08-19 08:53:00
5:53 AM,62.1,57.9,86,30.09,10.0,South,4.6,-,N/A,,Clear,190,2013-08-19 09:53:00
6:53 AM,63.0,59.0,87,30.09,10.0,South,3.5,-,N/A,,Clear,180,2013-08-19 10:53:00
7:53 AM,66.0,60.1,81,30.09,10.0,South,5.8,-,N/A,,Clear,190,2013-08-19 11:53:00
8:53 AM,69.1,61.0,75,30.08,10.0,South,4.6,-,N/A,,Clear,170,2013-08-19 12:53:00
9:53 AM,75.0,62.1,64,30.06,10.0,Calm,Calm,-,N/A,,Clear,0,2013-08-19 13:53:00
10:53 AM,78.1,60.1,54,30.05,10.0,Variable,6.9,-,N/A,,Clear,0,2013-08-19 14:53:00
11:53 AM,79.0,59.0,50,30.04,10.0,WNW,10.4,-,N/A,,Partly Cloudy,290,2013-08-19 15:53:00
12:53 PM,79.0,57.0,47,30.03,10.0,NW,8.1,-,N/A,,Clear,320,2013-08-19 16:53:00
1:53 PM,80.1,57.0,45,30.02,10.0,West,5.8,-,N/A,,Clear,260,2013-08-19 17:53:00
2:53 PM,80.1,57.9,47,30.01,10.0,WSW,8.1,-,N/A,,Clear,250,2013-08-19 18:53:00
3:53 PM,80.1,57.0,45,30.00,10.0,WNW,6.9,-,N/A,,Clear,300,2013-08-19 19:53:00
4:53 PM,79.0,57.0,47,30.00,10.0,WNW,5.8,-,N/A,,Clear,290,2013-08-19 20:53:00
5:53 PM,78.1,59.0,52,30.00,10.0,WSW,6.9,-,N/A,,Clear,250,2013-08-19 21:53:00
6:53 PM,75.9,60.1,58,30.01,10.0,West,6.9,-,N/A,,Partly Cloudy,260,2013-08-19 22:53:00
7:53 PM,75.0,61.0,62,30.01,10.0,WSW,3.5,-,N/A,,Mostly Cloudy,240,2013-08-19 23:53:00
8:53 PM,72.0,64.0,76,30.01,10.0,Calm,Calm,-,N/A,,Clear,0,2013-08-20 00:53:00
9:53 PM,69.1,64.0,84,30.02,10.0,Calm,Calm,-,N/A,,Clear,0,2013-08-20 01:53:00
10:53 PM,69.1,64.0,84,30.02,10.0,South,4.6,-,N/A,,Clear,180,2013-08-20 02:53:00
11:53 PM,69.1,64.0,84,30.03,10.0,SSE,3.5,-,N/A,,Partly Cloudy,150,2013-08-20 03:53:00